Wetbulb
66.33 69.07 71.88 73.47 73.10 72.70 72.88 72.72 72.47 72.32 72.15 72.32 72.04 71.92 71.83 71.75 71.53 71.49 71.18 71.56 71.71 72.65 72.58 72.48 72.09 71.67 71.43 70.68 70.32 69.08 68.40 67.70 67.67 68.70 69.48 71.58 73.34 73.08 72.91 72.54 72.84 72.79 72.99
67.03 69.75 71.47 73.21 73.12 72.98 72.82 72.90 73.11 72.27 72.11 72.27 72.59 72.13 71.95 72.04 72.26 71.82 71.88 71.94 72.22 72.16 71.95 71.38 70.86 70.27 69.41 69.04 68.66 67.57 66.42 65.15 64.60 64.75 65.86 70.21 72.06 72.12 71.80 71.70 71.61 71.03 71.68
66.34 70.21 72.10 72.33 73.09 72.97 72.99 73.06 72.69 71.94 71.94 72.23 72.52 71.30 71.10 71.76 71.22 71.12 71.46 71.66 71.97 71.46 70.90 70.01 69.19 68.14 67.61 67.16 65.86 64.65 64.02 62.16 60.97 60.01 62.11 68.94 71.40 72.08 71.85 71.31 71.13 70.00 70.38
66.33 69.96 71.55 71.18 72.73 73.10 73.04 72.99 72.67 71.87 71.77 72.16 72.42 71.72 71.44 70.91 70.01 69.10 68.95 70.76 70.76 70.14 69.16 67.96 66.48 65.30 64.96 63.95 63.41 62.94 60.98 59.70 58.76 59.13 65.06 65.98 67.22 69.91 71.32 70.87 69.93 69.36 69.55
66.28 69.04 70.58 70.68 72.39 72.89 73.22 73.05 72.72 72.09 71.97 72.36 72.34 71.85 71.18 69.45 68.76 67.19 67.04 67.57 68.72 68.72 67.37 65.60 64.23 63.58 62.66 62.36 60.99 59.50 58.03 56.88 56.73 61.54 63.35 65.85 68.51 70.30 70.89 71.46 70.45 69.23 69.83
66.69 68.56 69.43 70.88 72.11 72.58 72.96 72.97 72.60 71.91 72.26 72.59 71.91 69.97 69.09 68.23 67.43 66.03 66.21 67.32 67.50 66.75 65.49 63.68 62.58 62.22 61.40 60.29 58.85 57.54 56.33 55.33 56.72 58.16 61.58 64.61 67.97 69.17 70.75 70.16 71.06 69.92 70.17
66.94 68.76 69.94 70.51 71.66 72.15 72.52 72.64 72.51 72.39 72.71 72.19 70.09 69.17 68.88 68.02 66.76 65.73 65.55 66.32 65.58 64.54 63.09 62.32 62.23 60.59 59.72 58.94 57.49 55.84 54.19 53.79 55.77 57.26 60.03 64.42 67.42 67.69 68.22 68.31 68.50 68.54 68.47
66.86 68.54 69.37 67.89 69.15 70.48 71.30 72.02 71.99 72.11 71.53 70.51 69.53 67.48 68.56 67.17 65.80 64.68 64.62 64.58 63.80 62.49 61.89 61.73 60.64 59.32 58.54 57.51 56.18 54.28 52.05 50.75 54.21 56.25 59.27 62.38 64.26 65.68 65.59 65.95 66.08 66.06 66.30
67.19 67.83 68.74 69.51 68.79 66.66 67.98 68.95 69.98 70.48 70.00 69.64 68.95 67.91 67.09 66.36 64.49 63.45 63.36 62.83 62.26 61.50 61.24 60.13 59.24 58.57 57.30 55.73 54.12 52.37 50.54 49.92 52.33 54.60 55.66 59.80 60.68 62.76 63.27 63.41 63.80 64.06 64.31
66.10 66.92 67.63 68.57 68.88 68.88 68.59 64.89 66.42 68.19 68.29 68.22 67.35 65.79 64.57 63.84 63.57 62.86 62.20 62.29 61.51 61.14 59.76 58.82 58.42 57.21 55.75 53.83 51.56 49.24 47.80 48.09 50.27 52.05 54.65 56.76 59.01 60.39 61.27 61.45 62.06 62.27 62.63
63.45 65.41 66.66 67.04 67.71 67.93 67.89 66.22 64.05 65.21 65.90 65.58 65.02 62.77 61.30 63.28 62.02 60.81 60.42 62.02 61.47 60.08 58.87 57.86 56.91 55.08 52.95 50.82 48.82 46.93 47.52 48.47 48.52 49.97 52.72 53.12 56.26 58.60 59.20 59.50 60.17 60.51 61.11
61.70 63.06 64.72 65.59 65.89 66.30 65.92 67.25 67.46 67.59 67.81 67.55 66.79 64.76 63.76 61.98 61.05 59.68 58.22 60.12 61.07 59.43 57.49 56.40 54.14 50.15 47.28 49.03 47.81 46.13 47.86 47.49 47.87 48.28 50.99 51.67 54.28 55.75 57.42 58.33 58.92 59.59 60.46
61.25 62.63 62.83 63.81 64.82 64.93 64.93 65.58 66.27 66.57 66.05 66.68 65.90 63.79 62.09 59.75 58.54 58.39 59.27 59.35 59.34 56.21 55.75 53.73 49.87 48.14 48.07 48.34 47.82 47.58 47.14 47.56 48.23 48.21 49.19 50.65 54.05 55.44 56.79 57.92 59.34 59.53 59.40
59.01 61.22 62.51 62.69 63.10 63.72 64.41 64.16 64.76 65.32 64.90 64.23 63.24 61.32 59.38 58.42 57.59 56.82 57.69 58.08 57.43 55.73 53.60 49.92 48.23 48.05 47.22 46.16 46.35 46.06 46.38 47.09 47.42 48.03 48.60 49.17 52.47 54.85 56.63 58.06 58.52 59.35 59.83
57.02 59.14 60.94 62.17 62.01 62.38 62.52 62.72 63.19 63.34 63.32 62.81 61.37 59.30 58.48 57.18 55.79 55.30 56.12 55.79 55.22 52.92 50.14 47.60 47.47 46.58 46.08 45.16 45.25 45.49 45.35 45.84 46.42 47.56 49.63 49.49 52.43 54.99 56.42 57.12 57.90 59.25 59.58
55.46 57.41 59.59 60.66 61.26 61.53 61.44 61.53 61.58 61.85 62.33 61.72 59.87 58.07 56.93 56.07 54.41 53.63 53.93 53.10 52.02 49.72 47.49 47.18 46.58 46.22 45.67 45.30 44.04 44.37 44.59 45.48 46.13 46.80 48.64 50.62 51.11 53.34 54.55 55.47 56.45 57.13 58.30
54.06 56.02 57.50 59.11 60.19 60.42 60.42 60.90 60.78 60.75 60.46 60.15 58.64 57.39 55.35 54.33 52.66 51.84 51.80 50.63 48.97 46.95 46.32 46.03 45.16 45.11 44.40 43.70 43.54 43.88 44.40 44.85 45.25 45.20 46.48 48.99 51.67 50.70 53.38 54.23 54.91 57.34 57.20
53.64 53.45 55.43 57.23 58.37 59.18 59.86 60.19 59.84 59.58 58.76 58.26 58.03 56.67 54.35 52.64 51.29 50.41 49.78 48.34 46.58 45.41 45.18 44.67 43.94 43.56 43.91 43.49 43.32 43.41 44.04 44.64 43.77 44.31 45.02 46.09 47.22 46.89 47.57 50.62 53.14 53.46 53.60
53.19 52.90 52.87 55.37 56.64 57.50 58.84 59.25 59.43 58.72 57.86 57.45 57.08 55.93 53.74 51.35 49.98 49.14 48.52 47.37 45.13 44.42 44.21 44.02 43.33 43.79 43.01 42.92 42.46 43.48 43.86 44.24 43.12 42.64 43.37 43.22 42.85 43.76 45.29 46.03 47.14 48.00 48.99
53.12 52.87 52.59 52.70 55.01 56.28 57.05 57.81 58.02 57.47 56.81 56.69 56.20 54.97 53.34 50.78 48.56 47.98 47.15 46.70 44.50 43.61 43.39 43.08 42.71 42.78 43.66 42.69 39.80 41.28 42.42 42.97 43.08 42.90 42.10 41.64 41.78 42.16 42.72 43.36 45.13 45.79 47.99
51.27 50.51 50.48 50.76 51.54 54.31 54.34 54.38 55.04 54.60 54.59 54.59 55.08 53.52 52.59 50.79 48.43 47.33 46.58 45.50 43.54 43.07 43.29 42.60 42.39 40.97 40.57 42.07 41.61 40.49 40.57 41.42 41.48 41.56 41.64 41.14 40.50 40.47 40.84 41.98 43.18 44.04 46.70
47.94 48.55 48.63 48.85 49.20 51.79 53.22 53.86 54.28 53.58 53.91 53.75 53.47 52.02 51.59 50.13 47.99 46.55 46.32 45.01 43.31 43.03 42.56 41.90 41.14 40.43 41.36 41.19 42.39 42.01 38.74 38.70 40.15 40.52 40.79 39.53 39.45 40.14 39.54 39.72 40.65 41.36 43.54
44.37 45.06 45.83 47.20 47.43 48.82 51.02 51.82 51.46 48.57 49.24 50.10 50.43 49.87 48.91 49.15 47.55 46.53 45.88 44.85 43.54 43.56 42.39 42.11 41.95 41.79 40.18 39.71 41.65 43.56 39.15 40.69 39.42 39.65 39.31 39.19 38.84 39.44 39.38 39.05 39.41 40.11 42.21
42.33 43.56 44.40 45.11 45.29 45.86 48.43 48.55 47.88 46.42 45.39 46.72 47.13 47.54 47.53 47.57 47.03 45.70 45.51 44.71 43.84 43.02 42.57 42.26 41.96 42.68 43.70 39.57 38.76 38.49 39.81 42.88 40.54 36.24 38.27 38.43 38.43 37.37 38.19 38.56 38.90 39.25 42.12
42.58 42.58 42.38 43.36 43.18 44.44 45.05 46.37 46.04 46.08 47.39 47.27 45.53 46.08 45.88 45.60 45.51 45.03 44.59 44.11 43.06 42.31 42.86 42.06 40.74 41.34 42.52 43.25 41.82 38.23 38.25 38.80 39.29 41.39 37.14 35.36 36.77 37.28 37.61 38.28 38.96 39.57 40.91
41.98 41.45 41.58 41.33 40.70 41.85 42.97 44.00 43.84 44.18 44.78 44.36 43.47 43.74 44.25 43.99 43.19 43.60 43.23 43.45 43.11 41.94 41.48 41.38 41.03 41.18 41.41 42.04 42.80 40.79 39.90 38.79 38.18 39.00 38.78 37.45 36.36 35.21 36.52 37.33 38.06 39.40 39.31
MSLP
1014.37 1014.39 1015.43 1015.86 1016.23 1016.54 1016.82 1017.11 1017.40 1017.68 1017.89 1018.05 1018.18 1018.40 1018.38 1018.45 1018.58 1018.58 1018.68 1018.53 1018.59 1018.58 1018.56 1018.68 1018.78 1018.92 1019.00 1018.95 1019.08 1019.02 1019.04 1019.04 1018.83 1018.66 1018.52 1018.27 1017.97 1018.04 1018.18 1018.00 1017.69 1017.71 1018.06
1013.68 1014.29 1015.24 1015.60 1016.03 1016.40 1016.72 1017.02 1017.32 1017.60 1017.81 1017.95 1018.04 1018.21 1018.36 1018.48 1018.39 1018.40 1018.59 1018.59 1018.65 1018.66 1018.73 1019.04 1019.11 1019.20 1019.16 1019.22 1019.22 1019.29 1019.29 1019.22 1019.08 1019.02 1018.74 1018.40 1018.29 1018.20 1018.31 1018.21 1018.05 1018.24 1018.22
1013.96 1014.32 1015.15 1015.52 1015.86 1016.24 1016.57 1016.94 1017.22 1017.53 1017.72 1017.90 1018.08 1018.20 1018.35 1018.48 1018.58 1018.67 1018.82 1018.87 1018.75 1018.82 1018.93 1019.16 1019.40 1019.58 1019.59 1019.65 1019.57 1019.50 1019.42 1019.48 1019.24 1019.12 1018.85 1018.12 1018.27 1018.49 1018.38 1018.48 1018.48 1018.50 1018.44
1014.10 1014.55 1014.81 1015.51 1015.81 1016.17 1016.46 1016.76 1017.07 1017.43 1017.71 1017.88 1018.09 1018.28 1018.48 1018.60 1018.69 1018.77 1018.95 1019.09 1018.94 1019.17 1019.16 1019.42 1019.77 1019.92 1019.86 1019.91 1019.83 1019.74 1019.73 1019.69 1019.58 1019.18 1018.58 1018.44 1018.40 1018.68 1018.55 1018.67 1018.67 1018.58 1018.51
1014.31 1014.65 1014.98 1015.70 1015.86 1016.08 1016.39 1016.67 1016.93 1017.23 1017.52 1017.72 1017.91 1018.13 1018.37 1018.53 1018.70 1019.15 1019.39 1019.25 1019.20 1019.16 1019.51 1019.88 1020.03 1019.94 1020.15 1020.04 1020.04 1020.11 1020.04 1020.01 1019.68 1019.19 1018.89 1018.83 1018.53 1018.68 1018.63 1018.70 1018.74 1018.79 1018.78
1014.42 1014.95 1015.21 1015.63 1015.98 1016.22 1016.40 1016.59 1016.87 1017.08 1017.34 1017.56 1017.79 1018.05 1018.27 1018.73 1019.05 1019.47 1019.53 1019.43 1019.54 1019.72 1019.96 1020.06 1020.24 1020.14 1020.21 1020.38 1020.29 1020.36 1020.42 1020.04 1019.68 1019.45 1019.24 1019.15 1018.62 1018.96 1018.87 1018.97 1018.78 1018.96 1019.00
1014.42 1014.82 1015.23 1015.72 1015.86 1016.09 1016.36 1016.61 1016.83 1016.99 1017.22 1017.42 1017.53 1017.93 1018.34 1018.79 1019.16 1019.47 1019.51 1019.46 1019.64 1019.93 1019.97 1020.25 1020.32 1020.41 1020.39 1020.45 1020.48 1020.47 1020.52 1020.41 1019.80 1019.80 1019.69 1019.34 1019.17 1019.30 1019.23 1019.31 1019.28 1019.24 1019.21
1014.40 1014.75 1015.01 1015.53 1015.76 1016.01 1016.23 1016.47 1016.78 1016.97 1017.17 1017.36 1017.37 1018.02 1018.39 1018.80 1019.24 1019.52 1019.58 1019.74 1019.85 1019.96 1020.17 1020.28 1020.37 1020.45 1020.64 1020.85 1020.81 1020.81 1021.03 1020.59 1020.14 1020.09 1019.90 1019.79 1019.98 1019.60 1019.69 1019.66 1019.45 1019.55 1019.39
1014.44 1014.87 1014.96 1015.15 1015.56 1015.90 1016.14 1016.31 1016.66 1016.95 1017.15 1017.35 1017.44 1018.15 1018.41 1018.78 1019.26 1019.47 1019.59 1019.81 1019.85 1019.99 1020.30 1020.50 1020.54 1020.81 1020.97 1021.07 1021.00 1021.06 1021.20 1020.90 1020.26 1020.30 1020.15 1019.95 1020.34 1019.89 1019.79 1019.79 1019.61 1019.61 1019.51
1014.56 1014.73 1014.86 1015.07 1015.24 1015.44 1015.67 1016.12 1016.48 1016.76 1017.07 1017.33 1017.46 1018.11 1018.56 1018.98 1019.31 1019.46 1019.63 1019.76 1019.84 1019.99 1020.28 1020.59 1020.89 1021.03 1021.15 1021.25 1021.29 1021.45 1021.31 1020.99 1020.62 1020.57 1020.40 1020.59 1020.45 1019.98 1019.86 1019.83 1019.69 1019.73 1019.61
1014.30 1014.43 1014.54 1014.75 1015.04 1015.25 1015.38 1015.76 1016.30 1016.55 1016.87 1017.20 1017.50 1018.00 1018.69 1018.87 1019.23 1019.49 1019.60 1019.79 1019.87 1020.21 1020.45 1020.70 1020.97 1021.22 1021.30 1021.41 1021.57 1021.56 1021.06 1020.73 1020.73 1020.87 1020.74 1021.30 1020.74 1020.35 1020.09 1020.00 1020.00 1019.94 1019.84
1013.39 1013.62 1013.96 1014.20 1014.52 1014.94 1015.32 1015.60 1015.92 1016.09 1016.38 1016.72 1017.08 1017.71 1018.20 1018.58 1018.97 1019.34 1019.70 1020.01 1020.17 1020.48 1020.83 1021.02 1021.31 1021.57 1021.39 1021.15 1021.40 1021.38 1021.07 1021.15 1021.15 1021.25 1021.25 1021.62 1021.09 1020.66 1020.34 1020.26 1020.21 1020.14 1020.03
1012.52 1012.89 1013.35 1013.70 1013.94 1014.30 1014.67 1015.12 1015.34 1015.59 1015.94 1016.15 1016.63 1017.25 1017.83 1018.45 1019.12 1019.32 1019.48 1019.97 1020.21 1020.72 1020.72 1021.12 1021.56 1021.38 1021.48 1021.37 1021.51 1021.48 1021.57 1021.46 1021.36 1021.41 1021.73 1021.70 1021.20 1020.83 1020.56 1020.40 1020.29 1020.23 1020.15
1011.73 1012.00 1012.64 1013.16 1013.55 1013.84 1014.02 1014.32 1014.53 1014.93 1015.50 1015.74 1016.25 1016.88 1017.43 1017.93 1018.47 1018.86 1019.12 1019.47 1019.99 1020.36 1020.67 1021.12 1021.28 1021.49 1021.55 1021.67 1021.72 1021.72 1021.64 1021.41 1021.41 1021.55 1021.81 1022.00 1021.40 1020.98 1020.65 1020.52 1020.46 1020.33 1020.31
1010.94 1011.38 1011.89 1012.60 1012.88 1013.18 1013.59 1013.71 1013.94 1014.22 1014.64 1015.11 1015.77 1016.43 1016.78 1017.21 1017.79 1018.26 1018.70 1019.19 1019.60 1020.17 1020.49 1020.81 1021.02 1021.32 1021.54 1021.68 1021.87 1021.85 1021.78 1021.77 1021.75 1021.72 1021.76 1022.05 1021.68 1021.04 1020.70 1020.59 1020.53 1020.38 1020.41
1010.25 1010.40 1010.88 1011.34 1011.87 1012.29 1012.64 1012.84 1012.96 1013.27 1013.66 1014.34 1014.88 1015.54 1016.19 1016.53 1017.11 1017.70 1018.21 1018.78 1019.30 1019.87 1020.17 1020.43 1020.69 1021.02 1021.28 1021.57 1021.78 1021.92 1021.90 1021.92 1021.92 1021.89 1021.97 1022.10 1022.02 1021.64 1021.14 1020.88 1020.75 1020.58 1020.37
1008.72 1008.94 1009.30 1009.91 1010.69 1011.11 1011.35 1011.75 1012.05 1012.41 1013.02 1013.51 1014.06 1014.68 1015.42 1016.02 1016.49 1017.12 1017.80 1018.40 1018.86 1019.54 1020.12 1020.44 1020.82 1021.01 1021.09 1021.42 1021.65 1021.95 1022.05 1022.12 1022.22 1022.26 1022.22 1022.14 1022.04 1022.13 1021.83 1021.58 1021.15 1020.82 1020.78
1007.64 1007.97 1008.42 1009.13 1009.63 1010.08 1010.39 1010.94 1011.52 1012.01 1012.60 1013.04 1013.54 1014.20 1014.90 1015.46 1016.04 1016.68 1017.22 1017.91 1018.65 1019.39 1019.73 1020.04 1020.42 1020.70 1020.92 1021.28 1021.53 1021.79 1022.00 1022.20 1022.47 1022.47 1022.38 1022.41 1022.39 1022.49 1022.57 1022.45 1021.92 1021.80 1021.46
1006.77 1006.85 1007.40 1008.27 1008.77 1009.21 1009.83 1010.44 1010.88 1011.38 1011.99 1012.38 1012.93 1013.38 1014.11 1014.97 1015.52 1016.02 1016.68 1017.35 1018.32 1018.89 1019.32 1019.61 1020.05 1020.34 1020.72 1021.13 1021.53 1021.75 1021.84 1022.07 1022.42 1022.52 1022.61 1022.76 1022.75 1022.65 1022.69 1023.25 1022.92 1022.68 1022.24
1007.16 1006.97 1007.17 1007.77 1008.53 1009.24 1009.92 1010.44 1010.68 1010.98 1011.28 1011.72 1012.01 1012.53 1013.29 1014.15 1015.12 1015.81 1016.31 1016.92 1017.71 1018.22 1018.77 1019.31 1019.73 1020.25 1020.43 1020.84 1021.40 1021.71 1021.93 1022.28 1022.49 1022.50 1022.67 1022.80 1022.91 1022.90 1023.01 1023.11 1022.98 1022.97 1022.59
1007.05 1007.02 1007.44 1007.82 1008.38 1008.72 1009.48 1009.90 1010.19 1010.28 1011.13 1011.45 1011.68 1012.11 1012.66 1013.44 1014.13 1014.89 1015.67 1016.58 1017.29 1017.54 1017.97 1018.69 1019.34 1019.99 1020.58 1020.83 1021.11 1021.80 1022.10 1022.41 1022.58 1022.47 1022.51 1022.67 1022.99 1023.15 1023.26 1023.28 1023.30 1023.15 1022.97
1008.56 1008.04 1007.78 1007.81 1008.10 1009.00 1009.25 1009.59 1010.03 1010.45 1010.61 1011.12 1011.76 1012.30 1012.66 1012.99 1013.56 1013.98 1014.32 1015.15 1016.17 1016.95 1017.63 1018.24 1018.78 1019.26 1019.64 1020.24 1019.90 1020.49 1021.29 1022.15 1022.12 1022.28 1022.55 1022.67 1022.82 1023.01 1023.17 1023.28 1023.34 1023.48 1023.32
1009.82 1009.35 1008.74 1008.58 1008.90 1009.03 1009.40 1010.12 1010.57 1010.93 1011.07 1011.16 1011.73 1012.59 1013.29 1013.52 1013.80 1013.78 1014.01 1014.44 1015.25 1015.92 1016.56 1017.19 1017.64 1017.82 1018.44 1019.66 1019.65 1019.20 1019.92 1019.53 1020.78 1021.82 1022.20 1022.53 1022.79 1022.91 1023.13 1023.31 1023.35 1023.46 1023.41
1011.32 1010.95 1009.84 1009.65 1009.66 1010.14 1010.21 1010.45 1010.68 1010.84 1010.88 1011.23 1011.29 1011.60 1012.53 1013.59 1013.88 1014.24 1014.05 1014.25 1014.69 1015.20 1015.67 1016.42 1017.08 1017.41 1017.58 1018.11 1019.39 1019.38 1019.20 1018.79 1019.00 1020.56 1021.68 1022.27 1022.64 1022.76 1022.91 1023.16 1023.26 1023.54 1023.63
1012.14 1010.64 1011.14 1010.94 1011.00 1010.93 1010.94 1010.93 1010.99 1010.94 1010.82 1011.02 1011.63 1011.71 1012.09 1012.60 1013.32 1013.85 1014.22 1014.46 1014.41 1014.54 1015.11 1015.80 1016.38 1016.74 1017.17 1017.22 1017.52 1018.59 1018.96 1018.85 1018.75 1018.40 1019.71 1021.28 1022.15 1022.42 1022.76 1022.94 1023.08 1023.32 1023.58
1012.69 1012.65 1012.40 1012.00 1012.01 1012.17 1011.93 1011.61 1011.36 1011.25 1011.22 1010.98 1011.34 1011.40 1011.83 1012.16 1012.49 1013.09 1013.78 1014.15 1014.50 1014.61 1014.37 1014.46 1015.23 1015.98 1016.21 1016.51 1016.76 1017.05 1017.08 1017.55 1017.83 1017.94 1018.51 1019.83 1020.56 1021.66 1022.16 1022.60 1022.93 1023.24 1023.56
Wind_Speed
12 14 17 16 16 15 13 12 12 10 9 9 9 9 8 8 7 7 5 6 4 11 11 12 13 12 12 12 12 10 9 10 10 10 9 11 11 11 9 8 5 12 12
15 16 16 17 17 15 12 11 11 11 10 10 10 10 8 8 10 8 8 6 7 10 12 10 11 11 10 9 9 8 8 9 9 9 7 6 13 9 10 10 11 10 11
14 16 18 15 16 15 13 11 10 10 9 10 11 9 8 9 9 8 9 8 10 10 11 11 10 7 7 6 7 6 7 6 6 6 5 5 7 9 9 9 10 10 10
13 14 17 13 15 15 15 13 13 11 10 10 11 11 11 9 7 5 4 7 9 8 10 11 8 7 7 7 7 8 7 7 6 4 2 4 4 7 6 6 8 9 9
12 13 13 11 13 13 14 14 13 13 11 12 12 14 12 8 8 4 1 3 5 8 9 6 6 7 7 8 8 7 7 7 6 2 4 5 2 6 5 7 6 8 8
13 12 10 13 13 12 12 15 15 14 14 14 15 11 9 7 7 5 5 4 7 8 8 7 7 8 8 7 9 8 8 8 3 5 5 5 3 5 9 11 11 7 7
13 13 13 9 11 11 11 13 13 13 13 15 12 8 8 9 8 7 6 7 8 8 9 9 9 8 8 8 8 9 8 8 6 5 5 4 7 8 9 9 9 10 11
13 13 13 11 10 9 8 13 11 10 10 11 11 7 9 9 8 9 9 9 10 9 9 9 9 8 9 8 9 9 7 4 4 6 5 4 8 6 6 7 7 7 8
12 13 13 14 13 10 11 10 10 10 10 11 13 10 10 10 11 10 9 10 10 11 10 10 9 8 8 8 8 8 8 7 6 5 4 4 8 6 5 6 6 6 6
11 13 14 13 14 15 14 10 10 12 10 11 13 11 10 9 8 8 8 10 11 11 10 9 9 9 9 9 8 7 6 3 6 5 4 6 8 6 6 6 6 6 6
12 14 14 14 14 14 14 14 10 10 11 11 9 13 11 9 10 10 9 10 11 11 10 10 9 9 9 8 7 6 1 4 4 4 3 7 6 5 4 4 4 4 5
16 17 16 16 16 15 11 13 15 14 12 13 13 14 11 10 9 9 7 8 10 10 10 10 9 7 3 3 3 2 4 4 3 3 3 6 4 2 2 2 2 3 5
17 13 18 16 16 16 13 10 8 7 9 10 15 14 12 9 8 7 7 7 8 9 7 8 7 4 4 2 3 3 3 2 2 2 4 6 5 1 1 2 4 4 5
16 17 17 18 16 17 11 11 11 10 10 10 12 15 11 8 10 9 7 9 8 7 7 6 4 4 5 4 4 3 3 2 2 1 3 6 5 1 2 4 4 5 6
17 16 17 18 18 16 16 12 12 13 12 13 12 14 12 11 11 10 10 9 8 8 7 7 6 5 5 4 4 3 3 2 2 1 1 4 5 2 3 4 5 6 7
15 17 17 20 20 19 17 18 13 13 14 13 12 13 16 12 11 11 11 10 9 8 7 6 6 6 5 4 4 2 2 2 2 3 2 4 5 4 3 4 5 6 8
16 17 19 21 21 22 22 19 14 13 13 13 13 17 18 15 14 13 11 10 9 8 9 7 6 5 5 4 4 2 2 3 3 3 4 3 6 12 8 5 3 7 8
16 16 17 14 19 22 20 17 13 13 13 13 12 13 17 16 16 14 11 10 9 8 8 8 7 6 5 5 4 3 3 4 4 5 4 4 3 3 6 9 8 8 7
16 15 15 17 20 21 19 15 15 16 13 12 13 13 17 17 17 13 11 10 12 9 9 8 8 8 7 6 4 4 3 4 3 3 5 5 5 3 4 8 11 9 6
14 12 12 11 15 15 12 12 12 12 12 13 13 13 18 14 17 13 11 12 12 10 9 9 10 7 6 6 5 4 3 3 3 4 5 4 4 5 4 3 2 5 7
10 8 9 11 11 11 11 12 12 13 11 12 11 17 18 16 18 16 11 12 12 12 12 13 9 11 6 8 7 4 4 3 5 5 5 4 5 4 4 3 2 3 5
18 16 9 8 9 10 9 9 10 10 11 11 10 13 16 17 18 16 15 14 15 11 14 14 13 8 4 10 5 5 5 5 4 5 4 4 5 3 4 4 5 5 4
21 19 14 9 6 7 10 7 6 3 3 8 9 10 11 16 16 15 17 14 14 12 12 14 14 14 9 9 9 3 4 5 7 5 6 5 4 3 3 4 5 5 5
20 18 19 14 6 4 6 6 10 8 8 7 9 10 11 16 16 16 15 15 14 11 13 12 11 11 9 10 6 6 4 1 5 5 5 6 5 4 4 4 5 5 6
20 22 20 17 14 8 3 6 6 9 7 5 5 8 12 12 15 15 16 15 14 12 13 14 14 14 10 9 8 5 4 3 2 2 5 6 5 5 3 3 4 5 6
22 19 18 20 19 14 9 6 7 9 9 7 6 6 7 9 10 15 14 13 13 13 15 14 15 16 12 10 9 9 8 6 6 4 3 6 7 6 5 5 6 5 5
Wind_Direction
195 174 170 180 175 178 177 167 158 152 149 143 138 149 143 144 134 118 117 112 131 112 100 88 85 77 69 73 74 70 58 50 44 41 45 50 70 81 81 64 16 68 62
165 175 173 177 177 178 180 174 161 156 157 161 154 141 135 133 117 101 78 133 135 117 102 95 83 72 65 69 66 60 57 50 45 35 20 97 52 83 80 70 54 66 63
170 173 177 178 178 179 177 176 165 169 168 164 161 157 155 127 114 109 82 103 115 110 98 79 69 75 80 79 79 69 59 54 54 43 358 62 76 47 88 80 76 68 68
173 178 181 178 178 181 180 179 171 183 188 184 170 156 151 151 125 76 115 99 102 109 91 79 99 93 89 78 62 51 45 41 36 0 54 55 51 51 62 99 87 78 77
179 181 185 173 184 184 181 179 178 188 198 193 180 159 153 116 106 120 95 337 68 83 91 103 104 104 96 84 70 55 50 42 34 354 45 32 38 47 70 59 140 95 57
176 187 164 180 191 192 185 181 186 192 199 184 157 134 115 115 127 177 185 142 119 122 134 126 124 115 101 89 81 71 55 46 1 40 40 53 46 46 68 59 58 90 84
176 186 180 179 178 183 195 191 194 198 201 171 144 136 144 158 157 183 178 147 139 144 140 142 130 121 109 95 83 73 58 48 52 57 58 47 51 56 56 64 61 73 73
184 185 189 183 182 180 186 189 187 189 177 166 132 158 182 168 181 187 179 166 156 152 148 137 128 116 114 109 98 89 74 41 86 67 60 62 15 57 56 52 58 55 60
192 192 194 196 196 198 199 178 177 179 173 164 145 194 197 185 186 188 180 175 165 156 146 143 130 122 112 102 91 78 65 40 68 62 52 49 8 37 45 35 46 50 56
199 204 203 205 203 204 200 200 191 182 183 174 165 190 180 162 183 185 173 182 171 155 149 140 135 128 118 105 95 91 88 77 57 49 45 31 1 29 40 35 38 37 47
212 210 208 207 209 211 207 202 206 191 183 177 169 151 155 190 189 179 188 169 169 160 152 147 137 125 106 88 77 72 337 50 50 40 34 2 359 15 34 41 47 52 59
215 209 208 208 207 208 208 209 208 207 205 199 193 180 188 190 189 190 176 184 155 154 156 149 135 127 179 130 110 86 52 45 43 33 43 346 338 348 54 69 90 94 85
226 215 210 208 207 203 201 206 205 202 204 201 195 187 186 183 178 184 174 175 168 165 166 159 153 178 146 142 118 100 105 102 59 46 45 344 334 320 129 134 108 96 103
234 224 214 211 207 207 204 203 203 202 199 195 193 186 180 182 185 185 184 180 178 181 168 172 171 157 147 126 112 110 92 73 59 75 82 328 321 261 158 118 121 111 110
241 230 221 211 212 209 206 204 206 205 200 199 193 189 188 187 187 183 186 184 182 178 179 177 168 163 149 137 132 136 112 85 91 87 89 353 346 16 122 122 126 114 101
242 234 223 215 212 208 208 210 205 204 199 200 195 192 194 190 188 188 184 186 183 186 179 176 169 166 162 151 133 104 76 71 81 109 110 84 28 17 78 95 118 126 137
234 234 222 213 209 212 209 208 204 204 201 199 199 194 193 193 191 188 186 186 182 180 175 167 165 165 158 145 138 145 146 135 126 130 144 145 103 48 50 63 69 91 87
257 236 227 211 210 212 212 210 206 205 204 205 201 197 196 194 191 190 185 186 177 176 177 175 172 166 167 173 167 161 158 149 133 116 119 128 109 101 73 40 56 68 75
265 248 231 218 216 214 215 213 210 209 208 209 205 201 198 195 193 189 189 183 174 178 184 179 174 176 173 170 154 135 123 133 137 122 114 101 92 94 99 68 57 47 63
297 276 253 229 224 216 216 216 214 213 210 211 208 206 196 194 192 193 190 180 179 177 180 181 175 176 176 154 138 120 111 131 165 151 130 111 89 95 94 111 118 70 45
326 313 273 249 228 201 206 209 213 218 215 220 213 207 202 196 190 191 190 185 185 184 184 181 171 167 157 161 135 119 126 155 178 162 144 127 116 106 101 101 119 113 85
357 353 329 266 229 216 213 211 214 224 228 228 219 221 214 202 194 192 187 184 186 183 185 184 178 170 157 183 179 154 175 179 186 179 162 130 113 117 119 114 120 122 129
9 360 352 333 270 225 218 216 212 267 231 219 228 232 227 219 206 199 194 186 184 187 187 187 187 178 168 189 215 213 166 208 155 178 194 178 156 147 141 138 134 129 134
16 11 16 10 1 300 233 232 223 238 235 231 224 211 213 225 223 214 203 194 189 190 190 188 188 193 180 176 190 222 247 143 189 164 196 201 202 182 164 160 150 143 150
23 25 21 23 20 6 311 258 249 254 264 284 262 230 221 215 224 218 213 205 197 192 193 189 188 193 198 186 186 166 200 197 234 182 160 174 202 191 168 176 169 160 157
29 30 28 28 25 11 351 320 291 281 277 266 259 243 228 220 214 215 213 212 208 204 197 190 190 198 196 201 197 192 178 175 189 176 158 165 183 177 174 175 177 174 164